Location: A�t �Alizem
(31.2076°N, 8.7872°W)
Time: 15:46:13
(UTC+00:00)

NOAA 12 - Pass Details

Date: 27 November 2020
Orbit: 795 x 815 km, 98.5° (Epoch: 25 January)

Event Time Altitude Azimuth Distance (km) Brightness Sun altitude
Rises 17:48:30 0° 154° (SSE) 3,325 7.3 -3.9°
Reaches altitude 10° 17:50:52 10° 150° (SSE) 2,397 6.5 -4.4°
Maximum altitude 17:56:02 54° 74° (ENE) 982 4.3 -5.4°
Drops below altitude 10° 18:01:12 10° 358° (N) 2,407 6.4 -6.5°
Sets 18:03:35 0° 354° (N) 3,340 7.2 -6.9°
